Find Starlink 30778

NORAD ID: 58182 Int'l Des: 2023-167 Owner: SPXS Country: US Constellation: starlink operational
LEOCIRCULAR

实时位置

正在加载3D地球...

关于 Starlink 30778

正在加载描述...

即将过境

Passes for default location (London). Set your location on the main map for personalized predictions.

高度历史

Loading altitude history...

两行轨道根数

1 58182U 23167H 26124.44709700 .00005973 00000-0 22644-3 0 9994
2 58182 42.9982 188.4051 0000747 249.9066 110.1705 15.27571294139518
Epoch: May 4, 2026 • Age: 22 hours

当前状态

高度 486.4 km
速度 7.63 km/s
星下点 41.92°N, 70.57°W
发射日期 Oct 30, 2023
运行时间 2.5 years
类型 internet

技术详情

分类 Payload
质量 730.00 kg
干质量 700.00 kg
总质量 730.00 kg
长度 0.30 m
直径 4.10 m
跨度 29.00 m
形状 Box + pan
制造商 SPXS
平台类型 Starlink V2M
阶段状态 In Orbit
所有者/国家 SPXS/US

Most Searched